Chino, CA

5:02 AM PST on February 24, 2018 (GMT -0800)
Chino

Weather History for KCNO - October, 2013

Change the Weather History Date:

Sunday, October 27, 2013

  Actual Average Record
Temperature  
Mean Temperature 62 °F -  
Max Temperature 78 °F 74 °F 97 °F (2008)
Min Temperature 46 °F 46 °F 39 °F (2006)
Degree Days  
Heating Degree Days 4    
Growing Degree Days 12 (Base 50)    
Moisture  
Dew Point 51 °F    
Average Humidity 75    
Maximum Humidity 93    
Minimum Humidity 39    
Precipitation  
Precipitation 0.00 in - - ()
Sea Level Pressure  
Sea Level Pressure 29.90 in    
Wind  
Wind Speed 3 mph (West)    
Max Wind Speed 20 mph    
Max Gust Speed 26 mph    
Visibility 5 miles    
Events      
Averages and records for this station are not official NWS values.
T = Trace of Precipitation, MM = Missing Value Source: NWS Daily Summary

Daily Weather History Graph

Daily Weather History Graph

Search for Another Location

Airport or City:

Trip Planner

Search our weather history database for the weather conditions in past years. The results will help you decide how hot, cold, wet, or windy it might be!

Date:

Astronomy

Oct. 27, 2013 Rise Set
Actual Time 7:05 AM PDT 6:02 PM PDT
Civil Twilight 6:40 AM PDT 6:28 PM PDT
Nautical Twilight 6:10 AM PDT 6:57 PM PDT
Astronomical Twilight 5:41 AM PDT 7:26 PM PDT
Moon 12:25 AM PDT (10/27) 1:57 PM PDT (10/27)
Length of Visible Light 11h 47m
Length of Day
10h 56m
Last Quarter, 42% of the Moon is Illuminated
Oct 27
Last Quarter
Nov 3
New
Nov 9
First Quarter
Nov 17
Full
Nov 25
Last Quarter

Hourly Weather History & Observations

Time (PDT) Temp. Dew Point Humidity Pressure Visibility Wind Dir Wind Speed Gust Speed Precip Events Conditions
12:11 AM 55.4 °F 50.0 °F 82% 29.99 in 3.0 mi Calm Calm - N/A   Haze
12:18 AM 55.4 °F 51.8 °F 88% 29.99 in 2.5 mi Calm Calm - N/A   Haze
12:53 AM 55.9 °F 51.1 °F 84% 29.97 in 2.5 mi Calm Calm - N/A   Haze
1:53 AM 55.0 °F 51.1 °F 86% 29.96 in 2.5 mi Calm Calm - N/A   Clear
2:53 AM 53.1 °F 50.0 °F 89% 29.95 in 2.5 mi NE 3.5 mph - N/A   Clear
3:53 AM 50.0 °F 48.0 °F 93% 29.94 in 2.5 mi Calm Calm - N/A   Clear
4:53 AM 51.1 °F 48.0 °F 89% 29.93 in 2.0 mi Calm Calm - N/A   Clear
5:18 AM 50.0 °F 46.4 °F 87% 29.94 in 1.8 mi Calm Calm - N/A   Clear
5:29 AM 50.0 °F 46.4 °F 87% 29.94 in 2.0 mi Calm Calm - N/A   Clear
5:40 AM 48.2 °F 46.4 °F 93% 29.94 in 1.8 mi Calm Calm - N/A   Clear
5:53 AM 50.0 °F 48.0 °F 93% 29.93 in 1.8 mi Calm Calm - N/A   Clear
6:21 AM 48.2 °F 46.4 °F 93% 29.94 in 2.0 mi Calm Calm - N/A   Clear
6:53 AM 46.9 °F 45.0 °F 93% 29.94 in 3.0 mi Calm Calm - N/A   Clear
7:53 AM 50.0 °F 48.0 °F 93% 29.94 in 3.0 mi Calm Calm - N/A   Clear
8:53 AM 57.9 °F 52.0 °F 81% 29.96 in 3.0 mi Calm Calm - N/A   Haze
9:53 AM 64.0 °F 48.9 °F 58% 29.95 in 3.0 mi SSW 3.5 mph - N/A   Haze
10:53 AM 69.1 °F 48.0 °F 47% 29.94 in 4.0 mi Calm Calm - N/A   Haze
11:53 AM 75.0 °F 51.1 °F 43% 29.91 in 4.0 mi South 4.6 mph - N/A   Haze
12:53 PM 77.0 °F 50.0 °F 39% 29.88 in 10.0 mi West 10.4 mph - N/A   Clear
1:53 PM 75.9 °F 51.1 °F 42% 29.85 in 10.0 mi WNW 11.5 mph - N/A   Clear
2:53 PM 77.0 °F 51.1 °F 40% 29.83 in 10.0 mi West 13.8 mph - N/A   Partly Cloudy
3:53 PM 75.0 °F 51.1 °F 43% 29.82 in 10.0 mi WSW 13.8 mph - N/A   Partly Cloudy
4:53 PM 71.1 °F 52.0 °F 51% 29.82 in 10.0 mi WSW 13.8 mph - N/A   Clear
5:53 PM 66.0 °F 54.0 °F 65% 29.81 in 10.0 mi West 6.9 mph - N/A   Clear
6:53 PM 62.1 °F 55.9 °F 80% 29.82 in 10.0 mi West 9.2 mph - N/A   Partly Cloudy
7:53 PM 60.1 °F 55.0 °F 83% 29.82 in 5.0 mi West 19.6 mph 26.5 mph N/A   Haze
8:19 PM 60.8 °F 55.4 °F 82% 29.84 in 5.0 mi West 17.3 mph - N/A   Haze
8:53 PM 61.0 °F 55.0 °F 81% 29.83 in 6.0 mi West 12.7 mph - N/A   Haze
9:28 PM 60.8 °F 55.4 °F 82% 29.83 in 6.0 mi West 11.5 mph - N/A   Haze
9:53 PM 60.1 °F 54.0 °F 80% 29.84 in 6.0 mi WNW 10.4 mph - N/A   Haze
10:53 PM 60.1 °F 53.1 °F 78% 29.85 in 7.0 mi WSW 13.8 mph - N/A   Mostly Cloudy
11:53 PM 60.1 °F 52.0 °F 75% 29.84 in 8.0 mi WSW 9.2 mph - N/A   Overcast